Meath Environmental Platform

Observations for Trim Market St

Time AQI Temp °C Hum % Pres Pa CO μg/m³ H₂S μg/m³ NO μg/m³ NO₂ μg/m³ O₃ μg/m³ SO₂ μg/m³ PM1 μg/m³ PM2.5 μg/m³ PM10 μg/m³
Saturday 22 August 2026
23:17 2 16.8 61 57,792 0.24 0 1.3 14.26 58.38 0 3.56 6.49 9.57
23:16 2 16.8 61 57,794 0.23 0 1.21 13.44 59.61 0 2.85 5.49 7.53
23:15 2 16.8 60 57,797 0.22 0 1.21 12.66 59.25 0 2.85 5.5 7.53
23:14 2 16.8 60 57,798 0.24 0 1.31 13.44 58.78 0 2.85 7 10.26
23:10 2 16.8 60 57,798 0.27 0 1.39 11.89 60.53 0 2.85 4.52 6.16
23:04 2 16.8 60 57,786 0.25 0 1.83 32.69 31.7 0 2.14 5.53 8.22
23:02 2 16.9 60 57,772 0.21 0 1.32 13.39 57.21 0 2.85 6.54 10.28
23:00 2 16.9 60 57,753 0.27 0 1.32 12.31 61.24 0 2.14 5.55 8.91
22:56 2 16.9 59 57,690 0.21 0 1.31 11.55 59.85 0 2.14 5.56 7.53
22:52 2 16.9 59 57,642 0.26 0 1.28 11.99 59.01 0 2.85 5.57 8.91
22:51 2 16.9 59 57,621 0.24 0 1.31 14.41 56.75 0 2.14 5.57 7.53
22:50 2 17 59 57,582 0.24 0 1.3 19.58 53.31 0 2.14 5.07 7.53
22:49 2 17 59 57,551 0.22 0 1.31 13.36 57.53 0 2.85 5.57 7.53
22:48 2 17 59 57,521 0.21 0 1.3 11.69 59.62 0 2.14 5.08 6.84
22:47 2 17 59 57,490 0.22 0 1.32 12.1 61.18 0 0.71 4.08 5.45
22:46 2 17 59 57,461 0.23 0 1.36 14.66 57.79 0 2.14 4.08 6.14
22:45 2 17 59 57,424 0.25 0 1.41 17.88 54.32 0 0.71 4.08 7.53
22:44 2 17 59 57,408 0.28 0 1.5 29.13 39.07 0 2.14 5.09 8.22
22:43 2 17.1 59 57,382 0.46 0 1.6 33.85 32.69 0 1.43 5.09 8.92
22:42 2 17.1 59 57,357 1 0 1.46 28.01 39.94 0 1.43 4.6 6.14